GW2897 Weather Reports


time (UTC)temp
C
wind
direction
speed
KPH
gust
KPH
rain 1hr
cm
rain 24hr
cm
rain mn
cm
humidity
%
barometer
mb
20260505124504 16 254 3.2 11.3 0.00 0.00 0.00 85 1016.5
20260505123604 15 183 1.6 9.7 0.00 0.00 0.00 86 1016.5
20260505122704 15 135 1.6 9.7 0.00 0.00 0.00 87 1016.5
20260505121825 15 153 0.0 3.2 0.00 0.00 0.00 88 1016.3
20260505120905 14 101 0.0 1.6 0.00 0.00 0.00 89 1016.2
20260505120014 13 110 0.0 3.2 0.00 0.00 0.00 90 1016.1
20260505115411 13 108 0.0 3.2 0.00 0.00 0.00 90 1016.0
20260505114504 12 110 0.0 4.8 0.00 0.00 0.00 92 1016.0
20260505113604 12 132 0.0 1.6 0.00 0.00 0.00 92 1016.0
20260505112705 12 0 0.0 0.0 0.00 0.00 0.00 92 1016.0
20260505111804 11 0 0.0 0.0 0.00 0.00 0.00 92 1015.9
20260505110904 11 142 0.0 1.6 0.00 0.00 0.00 91 1015.7
20260505101805 12 257 0.0 1.6 0.00 0.00 0.00 89 1015.3
20260505100904 12 336 0.0 1.6 0.00 0.00 0.00 89 1015.3
20260505100004 12 345 0.0 1.6 0.00 0.00 0.00 88 1015.3
20260505095425 12 144 0.0 1.6 0.00 0.00 0.00 88 1015.2
20260505094504 12 92 0.0 1.6 0.00 0.00 0.00 87 1015.3
20260505093604 12 80 0.0 1.6 0.00 0.00 0.00 87 1015.2
20260505092704 13 291 0.0 1.6 0.00 0.00 0.00 86 1015.2
20260505091825 13 325 0.0 1.6 0.00 0.00 0.00 86 1015.2
20260505090904 13 34 0.0 1.6 0.00 0.00 0.00 86 1015.1
20260505090031 13 144 0.0 4.8 0.00 0.00 0.00 86 1015.1
20260505085404 13 104 0.0 4.8 0.00 0.00 0.00 86 1015.1
20260505084525 13 355 0.0 3.2 0.00 0.00 0.00 86 1015.1
20260505083604 13 290 0.0 3.2 0.00 0.00 0.00 86 1015.1
20260505082704 12 325 0.0 3.2 0.00 0.00 0.00 86 1015.2
20260505081804 12 77 0.0 6.4 0.00 0.00 0.00 86 1015.2
20260505080906 12 85 0.0 6.4 0.00 0.00 0.00 86 1015.2
20260505080026 12 118 0.0 1.6 0.00 0.00 0.00 86 1015.2
20260505075404 12 123 0.0 1.6 0.00 0.00 0.00 85 1015.1
20260505074505 12 89 0.0 1.6 0.00 0.00 0.00 85 1015.1
20260505073605 12 109 0.0 1.6 0.00 0.00 0.00 85 1015.1
20260505072704 13 94 0.0 1.6 0.00 0.00 0.00 83 1015.0
20260505071804 13 0 0.0 0.0 0.00 0.00 0.00 81 1015.0
20260505070905 14 125 0.0 4.8 0.00 0.00 0.00 80 1015.0
20260505070005 14 114 0.0 4.8 0.00 0.00 0.00 79 1014.9
20260505065404 14 98 0.0 4.8 0.00 0.00 0.00 79 1014.9
20260505064504 14 98 0.0 6.4 0.00 0.00 0.00 78 1014.9
20260505063604 14 129 0.0 3.2 0.00 0.00 0.00 78 1014.9
20260505062725 15 149 1.6 4.8 0.00 0.00 0.00 77 1014.9
20260505061804 15 128 1.6 6.4 0.00 0.00 0.00 77 1014.9
20260505060904 15 136 1.6 11.3 0.00 0.00 0.00 76 1015.0
20260505060025 15 142 1.6 6.4 0.00 0.00 0.00 76 1015.0
20260505055404 15 141 1.6 6.4 0.00 0.00 0.00 76 1015.0
20260505054504 15 123 1.6 6.4 0.00 0.00 0.00 75 1015.1
20260505053604 15 125 1.6 6.4 0.00 0.00 0.00 75 1015.1
20260505052704 15 130 1.6 6.4 0.00 0.00 0.00 74 1015.2
20260505051807 15 131 1.6 8.0 0.00 0.00 0.00 73 1015.3
20260505050905 15 134 1.6 4.8 0.00 0.00 0.00 72 1015.4
20260505040903 16 152 1.6 8.0 0.00 0.00 0.00 68 1015.3
20260505040005 16 125 1.6 8.0 0.00 0.00 0.00 67 1015.3
20260505035404 16 117 1.6 8.0 0.00 0.00 0.00 66 1015.3
20260505034504 16 110 0.0 4.8 0.00 0.00 0.00 64 1015.4
20260505033604 15 111 1.6 4.8 0.00 0.00 0.00 67 1015.5
20260505032725 16 121 0.0 4.8 0.00 0.00 0.00 70 1015.3
20260505031804 16 131 0.0 3.2 0.00 0.00 0.00 66 1015.3
20260505030904 16 114 0.0 1.6 0.00 0.00 0.00 68 1015.4
20260505030004 16 116 0.0 6.4 0.00 0.00 0.00 65 1015.3
20260505025422 16 111 0.0 1.6 0.00 0.00 0.00 65 1015.3
20260505024504 16 131 0.0 1.6 0.00 0.00 0.00 66 1015.2
20260505023604 16 129 0.0 1.6 0.00 0.00 0.00 69 1015.2
20260505022721 16 128 0.0 1.6 0.00 0.00 0.00 68 1015.2
20260505021804 16 118 0.0 1.6 0.00 0.00 0.00 67 1015.1
20260505020904 17 131 0.0 1.6 0.00 0.00 0.00 68 1015.1
20260505020005 17 135 0.0 3.2 0.00 0.00 0.00 62 1015.0
20260505015425 17 135 0.0 3.2 0.00 0.00 0.00 62 1015.0
20260505014505 17 121 0.0 3.2 0.00 0.00 0.00 61 1014.8
20260505013604 18 123 0.0 1.6 0.00 0.00 0.00 61 1014.8
20260505012738 18 106 0.0 1.6 0.00 0.00 0.00 61 1014.7
20260505011804 18 123 0.0 3.2 0.00 0.00 0.00 57 1014.6
20260505010904 19 114 0.0 3.2 0.00 0.00 0.00 57 1014.6
20260505010009 19 127 0.0 3.2 0.00 0.00 0.00 55 1014.5
20260505005404 19 96 0.0 1.6 0.00 0.00 0.00 55 1014.5
20260505004525 20 126 0.0 4.8 0.00 0.00 0.00 56 1014.4
20260505003604 20 124 0.0 6.4 0.00 0.00 0.00 54 1014.3
20260505002704 20 121 0.0 3.2 0.00 0.00 0.00 53 1014.2
20260505001804 20 116 0.0 4.8 0.00 0.00 0.00 52 1014.1
20260505000925 20 143 0.0 1.6 0.00 0.00 0.00 55 1014.1
20260505000005 20 106 0.0 3.2 0.00 0.00 0.00 49 1014.0
20260504235404 20 118 0.0 1.6 0.00 0.00 0.00 51 1013.9
20260504234505 21 248 0.0 1.6 0.00 0.00 0.00 51 1013.7
20260504233632 22 249 0.0 1.6 0.00 0.00 0.00 51 1013.7
20260504232704 23 250 0.0 1.6 0.00 0.00 0.00 45 1013.6
20260504231803 23 0 0.0 0.0 0.00 0.00 0.00 45 1013.6
20260504230904 24 250 0.0 1.6 0.00 0.00 0.00 38 1013.5
20260504230005 24 263 0.0 3.2 0.00 0.00 0.00 36 1013.7
20260504225405 24 281 1.6 4.8 0.00 0.00 0.00 35 1013.6
20260504224504 25 249 3.2 9.7 0.00 0.00 0.00 38 1013.7
20260504223604 25 245 1.6 9.7 0.00 0.00 0.00 37 1013.8
20260504222704 25 194 3.2 9.7 0.00 0.00 0.00 39 1013.9
20260504221804 25 264 1.6 9.7 0.00 0.00 0.00 38 1013.9
20260504220949 25 151 3.2 8.0 0.00 0.00 0.00 38 1013.8
20260504220005 25 229 3.2 8.0 0.00 0.00 0.00 38 1013.7
20260504215404 26 231 3.2 9.7 0.00 0.00 0.00 38 1013.7
20260504214505 26 248 1.6 11.3 0.00 0.00 0.00 36 1013.6
20260504213604 26 142 3.2 11.3 0.00 0.00 0.00 35 1013.6
20260504212704 26 257 3.2 9.7 0.00 0.00 0.00 37 1013.6
20260504211804 26 130 3.2 14.5 0.00 0.00 0.00 36 1013.6
20260504210904 26 206 3.2 12.9 0.00 0.00 0.00 33 1013.6
20260504210004 26 262 3.2 11.3 0.00 0.00 0.00 36 1013.7
20260504205425 26 233 3.2 11.3 0.00 0.00 0.00 33 1013.8
20260504204505 26 277 3.2 14.5 0.00 0.00 0.00 35 1013.8
20260504203604 26 269 3.2 14.5 0.00 0.00 0.00 35 1013.8
20260504202704 26 265 3.2 12.9 0.00 0.00 0.00 34 1013.9
20260504201804 26 263 4.8 11.3 0.00 0.00 0.00 33 1013.9
20260504200904 26 252 3.2 12.9 0.00 0.00 0.00 33 1014.0
20260504200004 26 253 3.2 9.7 0.00 0.00 0.00 33 1014.2
20260504195404 26 180 4.8 12.9 0.00 0.00 0.00 33 1014.2
20260504194504 26 132 3.2 17.7 0.00 0.00 0.00 35 1014.3
20260504193604 25 203 4.8 12.9 0.00 0.00 0.00 38 1014.5
20260504192704 26 134 4.8 16.1 0.00 0.00 0.00 35 1014.6
20260504191825 26 112 3.2 12.9 0.00 0.00 0.00 39 1014.8
20260504190904 25 240 4.8 12.9 0.00 0.00 0.00 38 1015.0
20260504190004 25 238 4.8 16.1 0.00 0.00 0.00 39 1015.0
20260504185403 25 268 4.8 12.9 0.00 0.00 0.00 41 1015.1
20260504184508 25 200 3.2 8.0 0.00 0.00 0.00 41 1015.2
20260504183605 25 244 4.8 11.3 0.00 0.00 0.00 41 1015.3
20260504182725 25 248 4.8 11.3 0.00 0.00 0.00 44 1015.4
20260504181803 25 181 3.2 11.3 0.00 0.00 0.00 42 1015.6
20260504180904 25 246 3.2 11.3 0.00 0.00 0.00 44 1015.5
20260504180004 24 294 3.2 8.0 0.00 0.00 0.00 43 1015.7
20260504175403 23 302 6.4 16.1 0.00 0.00 0.00 47 1015.7
20260504174525 23 269 4.8 16.1 0.00 0.00 0.00 46 1015.9
20260504173604 24 183 4.8 9.7 0.00 0.00 0.00 40 1016.0
20260504172703 23 183 3.2 14.5 0.00 0.00 0.00 41 1016.0
20260504171826 23 275 4.8 12.9 0.00 0.00 0.00 50 1016.1
20260504170905 22 288 6.4 12.9 0.00 0.00 0.00 44 1016.2
20260504150924 20 258 4.8 19.3 0.00 0.00 0.00 51 1017.3